COSMOS 2454 [-] (35635 NORAD) Tracking and Keplerian Element Data

This shows tracking and keplerian element data for the satellite.

Feedback or suggestion? Click here.




ElementValue
Catalog35635
NameCOSMOS 2454 [-]
Epoch Orbit47327
Epoch Day323.1914614
Epoch Year2018
RAAN324.5119
Inclination82.9548
Eccentricity0.0017767
Argument of Perigee254.393
Mean Anonmoly105.5268
Mean Motion13.89632747
Decay Rate1.4E-07
L11 35635U 09039A 18323.19146140 .00000014 00000-0 -13266-5 0 9995
L22 35635 82.9548 324.5119 0017767 254.3930 105.5268 13.89632747473279

Live tracking and technical data element details for COSMOS 2454 [-] (NORAD 35635). COSMOS 2454 [-] can be tracked NOW for your location showing map with azimuth and elevation plus other details from your city location.

Track the satellite on the map from your city or location and see movement details for azimuth, elevation, latitude, longitude, range, height, and movement on the map or in text.







IsCatalogInMostPopularTable: catalog: 35635, numindb: 47
Update: records affected: 1



GetName: 35635 COSMOS 2454 [-]

Hit Count: updated at: Mon, 19 Nov 2018 23:37:16 GMT